Regional Weather Roundup
Issued by NWS

Home | Current Version | Previous Version | Text Only | Print | Product List | Glossary On
Versions: 1 2 3 4 5 6 7 8 9 10 11 12 13 14 15 16 17 18 19 20 21 22 23 24 25 26 27 28 29 30 31 32 33 34 35 36 37 38 39 40 41 42 43 44 45 46 47 48 49 50
000
ASHW40 PHFO 060230
RWRHI

WEATHER ROUNDUP FOR HAWAII
NATIONAL WEATHER SERVICE HONOLULU HI
400 PM HST TUE MAY 05 2015

THIS IS AN AUTOMATED REPORT THAT HAS NOT BEEN QUALITY CONTROLLED.

NOTE..."FAIR" INDICATES FEW OR NO CLOUDS BELOW 12,000 FEET WITH NO
SIGNIFICANT WEATHER AND/OR OBSTRUCTIONS TO VISIBILITY.

* - THESE SITES REPORT LIMITED FIELDS

HIZ001>004-060300-
KAUAI-NIIHAU-

CITY           SKY/WX    TMP DP  RH WIND       PRES   REMARKS
LIHUE APT      PTSUNNY   79  66  64 NE15      30.07S
PORT ALLEN*      N/A     79 N/A N/A E17G25      N/A
POIPU*           N/A     81 N/A N/A NE10G20     N/A
PRINCEVILLE*     N/A     77 N/A N/A MISG        N/A
KOKOLE POINT*  NOT AVBL
MOLOAA DAIRY*  NOT AVBL
WAIMEA HTS*    NOT AVBL
PUU OPAE*      NOT AVBL
PUU LUA*       NOT AVBL
MAKAHA RIDGE*    N/A     73  66  78 S3          N/A
$$

HIZ005>011-060300-
OAHU-

CITY           SKY/WX    TMP DP  RH WIND       PRES   REMARKS
HONOLULU       MOSUNNY   80  62  54 E21G29    30.03S
KALAELOA       SUNNY     82  59  45 E10G18    30.03F
KANEOHE MCB    CLOUDY    80  64  58 NE9       30.03F
WHEELER FIELD  NOT AVBL
BELLOWS*         N/A    N/A N/A N/A NE15        N/A
KAHUKU*          N/A    N/A N/A N/A E13G21      N/A
WHEELER*       NOT AVBL
WAIANAE HARBOR NOT AVBL
DILLINGHAM*      N/A     86  59  39 MISG        N/A
KAHUKU TRN*      N/A     75  61  60 E12G26      N/A
KAWAILOA*        N/A     73  63  68 E13G26      N/A
KII*             N/A     79  66  65 E18         N/A
MAKUA RANGE*     N/A     82  59  44 E8G23       N/A
OAHU FOREST NW NOT AVBL
SCHOFIELD BRK*   N/A     75  57  53 MISG        N/A
SCHOFIELD S*   NOT AVBL
WAIANAE VLY*   NOT AVBL
KUAOKALA*      NOT AVBL
HONOULIUULI*   NOT AVBL
MOKUOLOE IS*     N/A    N/A N/A N/A MISG        N/A
PALEHUA*       NOT AVBL
WAIAWA PHB*    NOT AVBL
$$

HIZ012>013-060300-
MOLOKAI-

CITY           SKY/WX    TMP DP  RH WIND       PRES   REMARKS
MOLOKAI AIRPT  MOSUNNY   79  61  53 NE20G32   30.02F
KALAUPAPA      NOT AVBL
MAKAPULAPAI*   NOT AVBL
MOLOKAI 1*     NOT AVBL
PUU ALII*        N/A     64  57  78 CALM        N/A
$$

HIZ016-060300-
KAHOOLAWE-

CITY           SKY/WX    TMP DP  RH WIND       PRES   REMARKS
KAHOOLAWE*     NOT AVBL
HAKIOAWA*        N/A     73  64  73 MISG      30.45F
HONOKANAIA*      N/A     82  65  55 NE18G35   30.02F
KANELOA*         N/A     79  64  61 MISG      29.25F
KEALIALALO*      N/A     79  63  57 E18G36    30.01F
LUA MAKIKA*    NOT AVBL
$$

HIZ014>015-060300-
LANAI-

CITY           SKY/WX    TMP DP  RH WIND       PRES   REMARKS
LANAI CITY     FAIR      77  58  51 NE25      30.05F
LANAI 1*       NOT AVBL
$$

HIZ017>028-060300-
MAUI-

CITY           SKY/WX    TMP DP  RH WIND       PRES   REMARKS
KAHULUI        MOSUNNY   82  62  50 NE18G28   30.02F
KAPALUA-W MAUI MOSUNNY   79  59  50 E20G31    30.02F
HANA AIRPORT   CLOUDY    77  64  65 E6        30.08F
HANA*            N/A     77 N/A N/A E9          N/A
HALEAKALA SUMM   N/A     55   0  10 E13         N/A
MAALAEA BAY*   NOT AVBL
HALEAKALA*     NOT AVBL
KAUPO GAP*     NOT AVBL
KULA 1*          N/A     52  52 100 NW3G10      N/A
$$

HIZ023>026-060300-
BIG ISLAND OF HAWAII COAST AND LOWER SLOPES-

CITY           SKY/WX    TMP DP  RH WIND       PRES   REMARKS
KAILUA KONA    MOSUNNY   89  58  34 N23       29.96F
HILO           CLOUDY    75  65  70 VRB5      30.05F
HONOKAA*       NOT AVBL
KAWAIHAE MWT*    N/A     86 N/A N/A W10         N/A
KAWAIHAE*        N/A     81 N/A N/A SW8         N/A
SOUTH POINT*     N/A     75 N/A N/A NE24G35     N/A
UPOLU AIRPORT*   N/A    N/A N/A N/A E20G29      N/A
KAMUELA*       CLOUDY    70  57  64 NE24      30.10F
HAKALAU*         N/A     51  50  97 NE3G10      N/A
KALOKO-HONOKO*   N/A     88  59  37 NW7G13    29.94F
PALI 2*          N/A     66  55  68 NE20G28     N/A
KEALAKOMO*       N/A     79  61  53 NE18G26     N/A
KAUPULEHU*     NOT AVBL
KAPAPALA*        N/A     69  62  79 E9G20       N/A
LOWER KAHUKU*    N/A     61  61 100 E3G13       N/A
PUHE CS*         N/A     84  59  42 W3G12       N/A
PUHO CS*         N/A     80  62  54 W3          N/A
PTA KEAMUKU*     N/A     64  50  59 CALM        N/A
WAIKOLOA*      NOT AVBL
$$

HIZ027>028-060300-
BIG ISLAND OF HAWAII INTERIOR AND SUMMMITS-

CITY           SKY/WX    TMP DP  RH WIND       PRES   REMARKS
BRADSHAW FIELD NOT AVBL
MK VISITOR CEN NOT AVBL
MAUNA KEA*       N/A     45 -15   8 SE9         N/A
MAUNA LOA*       N/A     55  37  50 MISG        N/A
MAUNA LOA 1*   NOT AVBL
PTA KIPUKA*      N/A     61  55  82 W7          N/A
PTA RANGE 17*    N/A     61  54  77 W9          N/A
PTA WEST*        N/A     72  63  73 NW7G14      N/A
NENE CABIN*      N/A     52 N/A N/A E6G12       N/A
AHUMOA*        NOT AVBL
PTA PORTABLE*  NOT AVBL
PUU MALI*        N/A     61  52  72 VRB6G18     N/A
$$

HIC003-060300-
NORTHWEST ISLANDS-

CITY           SKY/WX    TMP DP  RH WIND       PRES   REMARKS
MIDWAY ISLAND  CLOUDY   N/A N/A N/A NE13G20   30.16S
MIDWAY NOS*    NOT AVBL
FRENCH FRIGATE NOT AVBL
$$

PHZ110>124-180-060300-
BUOY REPORTS

STATION/POSITION TIME  TEMP    WIND        PRES    WAVE   SWELL
                       AIR SEA DIR/SP/G            HT/PER HT/DIR
                 (UTC) (F)     (DEG/KT/KT) (MB)    (FT/S) (FT/D)
BUOY 51001       NOT AVBL
BUOY 51101       0200   76 77  110/ 14/ 16 1017.7F   6/ 9   5/ 80
BUOY 51100       NOT AVBL
BUOY 51002       0200   78 79   80/ 21/ 25 1013.3F   9/ 8   7/ 90
BUOY 51003       0200   78 79  110/ 12/ 14 1015.2F   8/ 8   7
BUOY 51004       0051   73 78   70/ 16/ 19 1015.4R   9/ 8   7/ 80
BARBERS PT BUOY  NOT AVBL
WAIMEA BAY BUOY  0200      77                N/A     5/13   3/ 10
KAILUA BAY BUOY  0200      78                N/A     8/ 8   2/ 10
LANAI BUOY       NOT AVBL
BARBERS PT 2     0200      77                N/A     5/20   3/190
PAUWELA MAUI     0200      76                N/A     7/13   3/350
HILO             0200      77                N/A     7/ 8   3/ 10
KANEOHE BAY BUOY 0200      76                N/A     7/ 8   3/ 10
HANALEI KAUAI    0200      78                N/A     9/ 8   3/ 30
KAHULUI HARBOR   0200   76 76   40/ 16/ 22 1016.5F
HONOLULU HARBOR  0200   79 78   50/  5/ 13 1016.9S
KILO NALU        NOT AVBL
HILO HARBOR      0200   75 76  330/  5/  6 1017.1F
MOKUOLOE         0200   77 77   80/  9/ 12 1017.9S
NAWILIWILI       0200   76 79   70/ 15/ 16 1017.5F
WHOTS BUOY       NOT AVBL
BUOY 51028       NOT AVBL
$$

......................KEY........................................
  SKY/WX - SKY CONDITIONS/PRESENT WEATHER
  TMP    - TEMPERATURE IN FAHRENHEIT
  DWPT   - DEWPOINT IN FAHRENHEIT
  RH     - RELATIVE HUMIDITY IN PERCENT
  WIND   - DIRECTION AND SPEED /MPH FOR ISLANDS...KTS FOR BUOYS/
  PRES   - MEAN SEA LEVEL PRESSURE IN INCHES OF HG
  VSB    - VISIBILITY IN MILES
  HX     - HEAT INDEX
  WCI    - WIND CHILL INDEX
  VRB    - VARIABLE WIND DIRECTION
  N/A    - NOT AVAILABLE


USA.gov is the U.S. government's official web portal to all federal, state and local government web resources and services.